PBO Station Position Time Series. Reference Frame : NAM14
Format Version,1.1.0
4-character ID,COND
Station name,CONDON
Begin Date, 2011-11-15
End Date, 2019-10-07
Release Date, 2019-10-08
Reference position, 45.2379067162 North Latitude, -120.1813783998 East Longitude, 865.41976 meters elevation,
Date, North (mm), East (mm), Vertical (mm), North Std. Deviation (mm), East Std. Deviation (mm),              Vertical Std. Deviation (mm), Quality,
2011-11-15,0.00, 0.00, 0.00, 2.68, 1.96, 8.67, repro,
2011-11-16,1.16, -1.54, -7.16, 2.16, 1.51, 6.92, repro,
2011-11-18,1.15, -2.05, -1.11, 2.21, 1.56, 7.14, repro,
2011-11-19,2.23, -0.56, -3.36, 2.17, 1.54, 6.98, repro,
2011-11-20,1.92, -0.70, -4.42, 2.15, 1.51, 6.86, repro,
2011-11-21,0.82, -0.61, -4.30, 2.16, 1.51, 6.87, repro,
2011-11-22,2.05, -0.92, -4.16, 2.14, 1.51, 6.92, repro,
2011-11-23,5.73, -0.03, -2.40, 2.23, 1.56, 7.08, repro,
2011-11-25,-0.61, -0.90, -4.00, 2.18, 1.53, 6.98, repro,
2011-11-26,1.90, -0.48, -5.09, 2.20, 1.53, 7.00, repro,
2011-11-27,1.77, -1.04, -10.25, 2.15, 1.50, 6.85, repro,
2011-11-28,-0.11, -2.74, -6.61, 2.16, 1.55, 7.04, repro,
2011-11-29,1.01, -0.26, -8.73, 2.17, 1.55, 7.00, repro,
2011-11-30,-0.22, 0.28, -4.31, 2.24, 1.55, 7.13, repro,
2011-12-02,0.89, -0.02, -8.09, 2.22, 1.58, 7.15, repro,
2011-12-03,1.11, -0.81, -14.24, 2.21, 1.60, 7.14, repro,
2011-12-05,2.42, -0.22, -12.19, 2.26, 1.61, 7.35, repro,
2011-12-06,0.55, -1.19, -9.16, 2.25, 1.58, 7.22, repro,
2011-12-07,2.16, -1.04, -7.80, 2.19, 1.54, 7.00, repro,
2011-12-09,0.08, 0.05, -8.15, 2.14, 1.53, 6.93, repro,
2011-12-10,1.73, -0.85, -8.98, 2.17, 1.54, 7.00, repro,
2011-12-11,0.82, -0.38, -4.97, 2.16, 1.53, 6.95, repro,
2011-12-12,0.67, -1.29, -4.86, 2.16, 1.52, 6.89, repro,
2011-12-13,0.74, -0.68, -5.58, 2.20, 1.57, 7.09, repro,
2011-12-14,1.11, -1.47, -6.60, 2.15, 1.54, 6.98, repro,
2012-01-11,8.20, 2.90, -10.09, 9.31, 5.78, 24.71, repro,
2012-01-13,0.47, -4.74, 5.27, 8.72, 5.48, 30.69, repro,
2012-01-14,0.82, -0.83, -5.75, 2.25, 1.60, 7.12, repro,
2012-01-15,2.13, -2.40, -2.20, 2.23, 1.54, 7.03, repro,
2012-01-16,1.64, -2.23, -3.38, 2.17, 1.53, 7.03, repro,
2012-01-17,1.97, -2.05, -4.01, 2.19, 1.56, 7.15, repro,
2012-01-18,2.90, -0.32, -3.39, 2.28, 1.63, 7.46, repro,
2012-01-20,0.48, -0.78, -4.08, 2.23, 1.59, 7.25, repro,
2012-01-21,1.28, -0.09, 1.42, 2.33, 1.64, 7.54, repro,
2012-01-22,4.02, -0.67, -1.92, 2.26, 1.60, 7.30, repro,
2012-01-23,1.89, -0.18, -8.02, 2.19, 1.59, 7.25, repro,
2012-01-24,2.59, -1.08, -3.65, 2.23, 1.55, 7.08, repro,
2012-01-25,3.21, -1.78, -14.55, 2.15, 1.54, 6.94, repro,
2012-01-27,3.21, -0.37, -7.37, 2.11, 1.49, 6.79, repro,
2012-01-28,1.54, -0.98, -9.84, 2.08, 1.47, 6.72, repro,
2012-01-29,-0.93, -0.46, -5.93, 2.13, 1.51, 6.90, repro,
2012-01-30,1.64, -1.77, 2.11, 2.15, 1.50, 6.80, repro,
2012-01-31,1.86, -1.65, 1.00, 2.08, 1.46, 6.67, repro,
2012-02-01,2.03, -1.16, 1.53, 2.38, 1.72, 7.69, repro,
2012-02-03,-0.17, -1.58, -10.25, 2.09, 1.49, 6.77, repro,
2012-02-04,1.91, -0.59, -9.85, 2.16, 1.54, 6.97, repro,
2012-02-05,2.92, -0.39, -12.42, 2.29, 1.63, 7.29, repro,
2012-02-06,2.24, -1.31, -6.02, 2.15, 1.53, 6.92, repro,
2012-02-07,2.26, -1.59, -11.48, 2.18, 1.51, 6.95, repro,
2012-02-08,1.49, -0.65, -13.06, 2.21, 1.58, 7.05, repro,
2012-02-10,4.23, -0.52, -13.01, 2.15, 1.51, 6.85, repro,
2012-02-11,2.27, -0.54, -8.84, 2.32, 1.61, 7.28, repro,
2012-02-12,2.71, -1.41, -6.21, 2.12, 1.49, 6.75, repro,
2012-02-13,2.00, -1.58, -2.85, 2.12, 1.49, 6.76, repro,
2012-02-14,1.51, -1.47, -3.56, 2.11, 1.50, 6.79, repro,
2012-02-15,2.32, -1.30, -1.71, 2.14, 1.51, 6.84, repro,
2012-02-17,1.55, -1.51, -8.82, 2.21, 1.56, 7.08, repro,
2012-02-18,3.27, -0.38, -13.42, 2.15, 1.50, 6.85, repro,
2012-02-19,1.76, -2.16, -5.25, 2.12, 1.50, 6.78, repro,
2012-02-20,0.97, -0.96, -8.51, 2.14, 1.51, 6.88, repro,
2012-02-21,1.68, -0.10, 1.69, 2.20, 1.55, 7.08, repro,
2012-02-22,-1.10, -4.16, -4.84, 2.23, 1.60, 7.22, repro,
2012-02-24,2.83, -0.64, -9.94, 2.08, 1.46, 6.66, repro,
2012-02-25,2.45, -1.30, -0.29, 2.14, 1.50, 6.87, repro,
2012-02-26,2.61, -0.60, -9.70, 2.13, 1.49, 6.82, repro,
2012-02-27,2.19, -1.20, -5.18, 2.25, 1.56, 7.18, repro,
2012-02-28,2.85, -2.03, -9.06, 2.80, 2.04, 9.29, repro,
2012-02-29,1.71, -1.28, 4.22, 2.11, 1.48, 6.76, repro,
2012-03-02,0.72, -1.69, -7.66, 2.16, 1.53, 6.96, repro,
2012-03-03,2.71, 0.02, -1.84, 2.09, 1.47, 6.71, repro,
2012-03-04,2.46, -0.49, -11.78, 2.10, 1.48, 6.78, repro,
2012-03-05,1.35, -1.00, -4.67, 2.22, 1.53, 7.03, repro,
2012-03-06,2.18, -1.31, 1.31, 2.20, 1.52, 6.89, repro,
2012-03-07,2.50, -0.37, -3.69, 2.14, 1.49, 6.80, repro,
2012-03-09,2.41, -1.00, -10.01, 2.19, 1.53, 6.97, repro,
2012-03-10,1.12, 0.14, -2.50, 2.16, 1.51, 6.90, repro,
2012-03-11,2.39, -1.16, -1.89, 2.54, 1.71, 7.89, repro,
2012-03-12,2.77, -0.42, 1.72, 2.17, 1.49, 6.76, repro,
2012-03-13,0.69, -1.70, 6.56, 2.14, 1.49, 6.82, repro,
2012-03-14,3.22, -1.32, -3.86, 2.18, 1.55, 7.13, repro,
2012-03-16,2.90, -2.61, -1.76, 2.18, 1.51, 6.97, repro,
2012-03-17,2.75, -1.51, -0.04, 2.17, 1.50, 6.88, repro,
2012-03-18,2.15, -1.10, 1.60, 2.28, 1.55, 7.12, repro,
2012-03-19,1.64, -2.04, -3.56, 2.26, 1.55, 7.05, repro,
2012-03-21,-0.09, -0.23, -14.30, 2.15, 1.50, 6.85, repro,
2012-03-23,3.22, -0.39, -12.95, 2.15, 1.53, 6.88, repro,
2012-03-24,2.74, -1.54, -10.00, 2.20, 1.52, 6.96, repro,
2012-03-25,2.66, -1.77, -5.21, 2.21, 1.55, 7.11, repro,
2012-03-26,1.87, -1.77, -4.83, 2.14, 1.52, 6.89, repro,
2012-03-27,2.98, -0.47, -9.45, 2.28, 1.64, 7.28, repro,
2012-03-28,0.55, -1.07, -8.46, 2.40, 1.72, 7.82, repro,
2012-03-30,3.84, -1.54, -3.09, 2.13, 1.50, 6.81, repro,
2012-03-31,1.89, -1.66, -4.24, 2.09, 1.47, 6.70, repro,
2012-04-01,0.51, -2.32, -4.44, 2.11, 1.48, 6.80, repro,
2012-04-02,2.13, -0.60, -8.09, 2.10, 1.48, 6.78, repro,
2012-04-03,1.41, 0.25, -16.45, 2.09, 1.46, 6.69, repro,
2012-04-04,2.15, 0.79, -8.75, 2.08, 1.46, 6.63, repro,
2012-04-06,2.04, -1.36, -11.96, 2.09, 1.47, 6.72, repro,
2012-04-07,1.25, -1.19, -11.49, 2.10, 1.46, 6.73, repro,
2012-04-08,1.43, -0.62, -14.65, 3.35, 2.50, 11.60, repro,
2012-04-09,1.01, -0.64, -11.93, 2.18, 1.53, 7.10, repro,
2012-04-10,1.66, -1.16, -11.21, 2.08, 1.47, 6.73, repro,
2012-04-11,0.81, -1.30, -5.16, 2.09, 1.47, 6.74, repro,
2012-04-13,-3.65, -1.16, 1.61, 2.19, 1.55, 7.11, repro,
2012-04-14,0.83, -0.57, -3.62, 2.10, 1.47, 6.79, repro,
2012-04-15,1.21, -1.48, -10.26, 2.08, 1.46, 6.73, repro,
2012-04-16,0.10, -0.62, -7.41, 2.11, 1.49, 6.87, repro,
2012-04-17,-0.32, -0.80, -13.43, 2.08, 1.47, 6.73, repro,
2012-04-18,1.15, 0.90, -8.40, 2.09, 1.47, 6.74, repro,
2012-04-20,0.39, -0.91, -16.68, 2.09, 1.47, 6.77, repro,
2012-04-21,1.03, -1.82, -17.67, 2.09, 1.48, 6.79, repro,
2012-04-22,0.02, -0.68, -10.20, 2.10, 1.48, 6.81, repro,
2012-04-23,0.43, 0.01, -7.39, 2.09, 1.47, 6.75, repro,
2012-04-24,-0.25, 0.07, -11.49, 2.16, 1.52, 6.98, repro,
2012-04-25,-0.19, -0.71, -13.32, 2.15, 1.50, 6.88, repro,
2012-04-27,-0.06, 0.04, -6.24, 2.18, 1.48, 6.88, repro,
2012-04-28,-0.83, -0.86, -15.14, 2.09, 1.47, 6.72, repro,
2012-04-29,0.14, 0.00, -16.13, 2.09, 1.47, 6.74, repro,
2012-04-30,-0.50, 0.50, -11.15, 2.12, 1.47, 6.80, repro,
2012-05-01,0.78, -0.40, -4.30, 2.16, 1.54, 7.00, repro,
2012-05-02,-0.00, 0.21, -4.60, 2.13, 1.52, 6.93, repro,
2012-05-04,-0.10, 0.78, -6.70, 2.57, 1.78, 8.23, repro,
2012-05-05,0.48, 0.61, -12.45, 2.66, 1.80, 8.31, repro,
2012-05-06,1.35, 0.32, -20.37, 2.68, 1.80, 8.29, repro,
2012-05-07,-0.45, -0.97, -16.59, 2.12, 1.49, 6.76, repro,
2012-05-08,0.69, -1.63, -8.05, 3.39, 2.32, 10.91, repro,
2012-05-09,-0.30, -1.78, -12.03, 2.26, 1.56, 7.21, repro,
2012-05-11,-0.38, -1.44, -15.95, 3.66, 2.75, 12.33, repro,
2012-05-12,-0.73, -0.57, -10.70, 3.09, 2.25, 9.89, repro,
2012-05-13,-1.33, -1.25, -9.95, 2.45, 1.72, 7.85, repro,
2012-05-14,-1.17, -1.07, -9.97, 2.08, 1.46, 6.70, repro,
2012-05-15,-2.55, -1.33, -5.29, 2.10, 1.47, 6.75, repro,
2012-05-16,-0.69, -1.20, -6.46, 2.09, 1.47, 6.75, repro,
2012-05-18,-2.50, -1.85, -6.42, 2.13, 1.49, 6.83, repro,
2012-05-19,-1.97, -0.69, -7.42, 2.12, 1.50, 6.85, repro,
2012-05-20,0.16, -0.77, -5.04, 2.57, 2.02, 8.94, repro,
2012-05-21,-2.78, -1.32, 0.79, 2.12, 1.50, 6.81, repro,
2012-05-22,-3.01, -2.55, -3.48, 2.22, 1.56, 7.13, repro,
2012-05-23,-0.82, -1.07, -3.58, 2.15, 1.50, 6.87, repro,
2012-05-25,-1.50, -0.93, -8.05, 2.13, 1.49, 6.82, repro,
2012-05-26,-1.28, -0.81, -0.50, 2.13, 1.49, 6.83, repro,
2012-05-27,-1.41, -1.30, -2.18, 2.09, 1.46, 6.70, repro,
2012-05-28,-2.46, -0.55, -0.96, 2.09, 1.46, 6.72, repro,
2012-05-29,-1.07, -2.98, -6.89, 2.09, 1.46, 6.68, repro,
2012-05-30,-1.80, -0.44, -3.44, 2.09, 1.46, 6.70, repro,
2012-06-01,-1.30, -0.43, -5.11, 2.09, 1.45, 6.69, repro,
2012-06-02,0.53, -0.72, 1.80, 2.13, 1.48, 6.78, repro,
2012-06-03,-2.78, -1.59, -7.08, 2.33, 1.68, 7.72, repro,
2012-06-04,-2.38, -1.00, -5.07, 2.14, 1.48, 6.83, repro,
2012-06-05,-0.99, -0.76, -4.71, 2.08, 1.46, 6.73, repro,
2012-06-06,-1.77, -0.95, -3.53, 2.14, 1.48, 6.84, repro,
2012-06-08,-3.21, -0.17, -3.75, 2.09, 1.46, 6.70, repro,
2012-06-09,-0.02, -0.88, -2.68, 2.07, 1.46, 6.67, repro,
2012-06-10,0.56, -0.67, -4.53, 2.09, 1.46, 6.71, repro,
2012-06-11,-0.77, -0.94, -8.37, 2.09, 1.46, 6.72, repro,
2012-06-12,-1.38, -1.37, -2.86, 2.09, 1.46, 6.68, repro,
2012-06-13,-1.58, -1.79, -4.97, 2.10, 1.46, 6.69, repro,
2012-06-15,-2.46, -1.68, -4.58, 2.52, 1.77, 8.36, repro,
2012-06-16,-1.02, -1.34, -2.72, 2.10, 1.46, 6.74, repro,
2012-06-17,-0.95, -1.75, 7.35, 2.11, 1.48, 6.82, repro,
2012-06-18,-1.25, -1.68, 4.52, 2.24, 1.58, 7.28, repro,
2012-06-19,-2.04, -1.31, -5.88, 2.10, 1.48, 6.73, repro,
2012-06-20,-1.60, -1.66, -3.56, 2.12, 1.49, 6.80, repro,
2012-06-22,-2.17, -1.48, 2.97, 2.11, 1.47, 6.75, repro,
2012-06-23,-2.34, -0.66, 0.85, 2.15, 1.51, 6.90, repro,
2012-06-24,-2.97, -1.32, -1.36, 2.09, 1.46, 6.69, repro,
2012-06-29,1.13, 0.87, -4.25, 4.30, 2.94, 12.68, repro,
2012-06-30,-1.48, -0.74, -1.96, 2.12, 1.49, 6.81, repro,
2012-07-01,-2.03, -1.64, -11.18, 2.11, 1.47, 6.77, repro,
2012-07-02,-1.18, -0.85, 0.24, 2.11, 1.49, 6.82, repro,
2012-07-03,-1.24, -1.93, 11.73, 2.13, 1.47, 6.76, repro,
2012-07-04,-2.62, -1.05, -2.11, 2.08, 1.45, 6.63, repro,
2012-07-06,-0.62, -1.54, -8.08, 2.13, 1.50, 6.89, repro,
2012-07-07,-1.98, -2.22, -3.26, 2.10, 1.46, 6.69, repro,
2012-07-08,-3.59, -2.20, -0.56, 2.13, 1.48, 6.80, repro,
2012-07-09,-2.22, -1.93, 1.46, 2.12, 1.47, 6.76, repro,
2012-07-10,-2.96, -4.24, 3.40, 2.38, 1.74, 7.76, repro,
2012-07-11,-2.85, -1.36, -2.51, 2.09, 1.46, 6.66, repro,
2012-07-13,-2.82, -1.13, 5.84, 2.09, 1.47, 6.73, repro,
2012-07-14,-2.63, -0.34, 3.50, 2.09, 1.47, 6.73, repro,
2012-07-15,-5.27, -0.85, -2.97, 2.41, 1.71, 7.80, repro,
2012-07-16,-2.06, -1.81, -2.97, 2.37, 1.65, 7.70, repro,
2012-07-17,-3.98, -3.48, 5.20, 2.28, 1.60, 7.34, repro,
2012-07-18,-4.60, -2.78, -4.79, 2.18, 1.50, 6.82, repro,
2012-07-20,-2.24, -1.64, 4.02, 2.21, 1.48, 6.91, repro,
2012-07-21,-2.26, -0.92, 0.09, 2.07, 1.45, 6.66, repro,
2012-07-22,-2.80, -0.95, -1.34, 2.14, 1.48, 6.76, repro,
2012-07-23,-3.63, -0.64, -2.85, 2.10, 1.47, 6.75, repro,
2012-07-24,-2.49, -1.34, -2.48, 2.08, 1.45, 6.67, repro,
2012-07-25,-2.82, -2.33, -2.25, 2.08, 1.46, 6.67, repro,
2012-07-27,-3.41, -2.85, 2.16, 2.09, 1.46, 6.70, repro,
2012-07-28,-3.58, -2.02, -3.18, 2.10, 1.46, 6.72, repro,
2012-07-29,-2.07, -1.81, 1.54, 2.09, 1.46, 6.72, repro,
2012-07-30,-2.57, -1.09, -0.87, 2.09, 1.47, 6.75, repro,
2012-07-31,-1.75, -1.25, -4.53, 2.11, 1.46, 6.72, repro,
2012-08-01,-4.60, -1.06, -4.85, 2.08, 1.45, 6.66, repro,
2012-08-03,-5.25, -2.33, 4.35, 2.09, 1.45, 6.70, repro,
2012-08-04,-2.84, -3.25, 0.12, 2.57, 1.82, 8.26, repro,
2012-08-05,-3.53, -2.43, 1.89, 2.09, 1.46, 6.70, repro,
2012-08-06,-2.78, -2.50, -7.35, 2.24, 1.56, 7.09, repro,
2012-08-07,-2.95, -2.41, 3.44, 2.13, 1.49, 6.89, repro,
2012-08-08,-5.11, -1.58, 2.27, 2.27, 1.59, 7.47, repro,
2012-08-10,-2.91, -2.55, 3.94, 2.09, 1.45, 6.67, repro,
2012-08-11,-3.68, -1.97, -1.18, 2.08, 1.45, 6.65, repro,
2012-08-12,-4.52, -2.33, 0.61, 2.09, 1.45, 6.66, repro,
2012-08-13,-3.66, -1.90, -3.54, 2.10, 1.46, 6.74, repro,
2012-08-14,-5.79, -2.36, 4.45, 2.09, 1.45, 6.69, repro,
2012-08-15,-3.19, -2.92, 1.77, 2.10, 1.46, 6.71, repro,
2012-08-17,-3.36, -2.54, 2.19, 2.32, 1.65, 7.62, repro,
2012-08-18,-3.44, -2.16, 5.24, 2.37, 1.62, 7.49, repro,
2012-08-21,-4.70, -1.34, 7.34, 2.50, 1.71, 7.95, repro,
2012-08-22,-5.09, -2.72, 5.64, 2.09, 1.46, 6.70, repro,
2012-08-24,-4.99, -0.20, 7.34, 2.82, 2.00, 9.31, repro,
2012-08-25,-4.81, -2.01, 4.89, 2.09, 1.45, 6.68, repro,
2012-08-26,-3.56, -2.60, 8.96, 2.13, 1.49, 6.88, repro,
2012-08-27,-3.27, 0.31, 6.37, 2.14, 1.51, 6.91, repro,
2012-08-28,-5.42, -1.87, 5.83, 2.41, 1.68, 7.77, repro,
2012-08-29,-8.45, 1.46, -1.97, 3.97, 3.14, 13.24, repro,
2012-08-31,-3.91, -2.00, 8.86, 2.08, 1.46, 6.69, repro,
2012-09-01,-4.74, -2.04, 1.23, 2.08, 1.45, 6.65, repro,
2012-09-02,-3.97, -1.26, 7.90, 2.07, 1.47, 6.70, repro,
2012-09-03,-4.32, -2.28, 3.44, 2.11, 1.46, 6.74, repro,
2012-09-04,-5.85, -1.42, 1.04, 2.34, 1.59, 7.25, repro,
2012-09-05,-4.06, -2.01, 5.29, 2.08, 1.47, 6.70, repro,
2012-09-07,-3.89, -0.70, 3.01, 2.09, 1.47, 6.70, repro,
2012-09-08,-5.10, -2.20, 3.91, 2.08, 1.47, 6.69, repro,
2012-09-09,-4.18, 0.52, 9.50, 2.15, 1.49, 6.84, repro,
2012-09-10,-6.09, -0.37, 2.38, 2.57, 1.82, 8.39, repro,
2012-09-11,-4.71, -1.46, 4.28, 2.12, 1.50, 6.80, repro,
2012-09-12,-4.45, -2.16, 0.69, 2.12, 1.50, 6.79, repro,
2012-09-14,-4.27, -1.76, 1.13, 2.12, 1.50, 6.85, repro,
2012-09-15,-2.08, -2.57, 2.60, 2.11, 1.47, 6.80, repro,
2012-09-16,-3.95, -1.10, -0.03, 2.09, 1.46, 6.68, repro,
2012-09-17,-4.05, -2.01, 3.82, 2.07, 1.46, 6.64, repro,
2012-09-18,-4.00, -1.59, 4.70, 2.11, 1.49, 6.77, repro,
2012-09-19,-4.88, -2.53, 8.02, 2.14, 1.51, 6.87, repro,
2012-09-21,-4.34, -2.00, 4.82, 2.10, 1.46, 6.71, repro,
2012-09-22,-3.78, -2.07, 6.63, 2.10, 1.46, 6.70, repro,
2012-09-23,-3.71, -1.67, 4.46, 2.09, 1.46, 6.70, repro,
2012-09-24,-4.19, -2.86, 7.73, 2.16, 1.51, 6.86, repro,
2012-09-25,-3.51, -1.67, 2.68, 2.12, 1.52, 6.86, repro,
2012-09-26,-3.40, -1.84, 2.86, 2.11, 1.50, 6.84, repro,
2012-09-28,-4.01, -2.32, 10.00, 2.12, 1.49, 6.80, repro,
2012-09-29,-4.15, -3.00, 5.62, 2.10, 1.47, 6.74, repro,
2012-09-30,-4.49, -2.78, -14.53, 3.14, 2.24, 10.45, repro,
2012-10-01,-3.90, -2.18, 0.76, 2.20, 1.54, 7.11, repro,
2012-10-02,-3.46, -1.41, 6.34, 2.20, 1.56, 7.14, repro,
2012-10-03,-3.03, -2.09, -0.12, 2.09, 1.47, 6.72, repro,
2012-10-05,-3.07, -1.30, 2.61, 2.10, 1.49, 6.74, repro,
2012-10-06,-3.98, -2.05, 1.59, 2.10, 1.46, 6.72, repro,
2012-10-07,-3.04, -1.39, 4.79, 2.16, 1.53, 6.95, repro,
2012-10-08,-3.58, -1.96, 7.30, 2.13, 1.51, 6.87, repro,
2012-10-09,-4.17, -2.28, 2.94, 2.12, 1.49, 6.81, repro,
2012-10-10,-2.34, -2.46, 1.24, 2.10, 1.48, 6.70, repro,
2012-10-17,-1.60, -2.15, 1.34, 2.12, 1.48, 6.77, repro,
2012-10-18,-1.17, -1.00, 2.00, 2.32, 1.65, 7.66, repro,
2012-10-19,-0.68, -1.25, 9.76, 2.33, 1.69, 7.68, repro,
2012-10-20,-0.45, -2.46, 5.81, 2.54, 1.82, 8.32, repro,
2012-10-21,-2.13, -1.64, 7.81, 2.12, 1.49, 6.77, repro,
2012-10-22,-1.41, -1.16, 4.14, 2.21, 1.58, 7.14, repro,
2012-10-23,-2.09, -1.68, -0.12, 2.18, 1.53, 7.02, repro,
2012-10-24,-1.86, -0.92, -1.05, 2.15, 1.49, 6.82, repro,
2012-10-25,-2.32, -1.45, -6.04, 2.12, 1.49, 6.75, repro,
2012-10-26,-1.61, -0.49, -9.01, 2.19, 1.52, 6.92, repro,
2012-10-27,-1.58, -0.45, -4.08, 2.14, 1.49, 6.81, repro,
2012-10-28,-2.80, -1.36, -0.49, 2.15, 1.50, 6.86, repro,
2012-10-29,-0.76, -0.57, 1.74, 2.15, 1.50, 6.88, repro,
2012-10-30,-2.81, -1.35, -0.17, 2.12, 1.49, 6.78, repro,
2012-10-31,-0.06, -1.00, 0.84, 2.15, 1.52, 6.89, repro,
2012-11-01,-1.32, -1.00, -8.05, 2.12, 1.50, 6.79, repro,
2012-11-02,-0.63, -0.92, -4.43, 2.17, 1.53, 6.96, repro,
2012-11-03,-1.77, -0.57, -4.05, 2.18, 1.51, 6.98, repro,
2012-11-04,-1.86, -1.28, -6.80, 3.27, 2.11, 10.23, repro,
2012-11-10,0.85, -2.16, -1.26, 2.17, 1.53, 6.96, repro,
2012-11-11,0.23, -1.36, -0.81, 2.15, 1.53, 6.94, repro,
2012-11-12,-0.62, -0.99, -3.76, 2.16, 1.52, 6.89, repro,
2012-11-13,0.89, -1.32, -10.50, 2.16, 1.53, 6.95, repro,
2012-11-14,-0.31, -0.88, -5.24, 2.15, 1.50, 6.87, repro,
2012-11-15,0.71, -0.16, -10.13, 2.19, 1.52, 6.97, repro,
2012-11-16,0.16, -1.15, -4.97, 2.16, 1.54, 6.98, repro,
2012-11-17,1.33, -0.82, 0.33, 2.13, 1.50, 6.85, repro,
2012-11-18,-1.97, -0.83, -4.88, 2.15, 1.51, 6.91, repro,
2012-11-19,1.50, -0.76, -0.50, 2.19, 1.56, 7.02, repro,
2012-11-20,3.76, -1.65, -4.97, 2.21, 1.52, 7.06, repro,
2012-11-21,1.60, -1.43, -1.59, 2.13, 1.48, 6.84, repro,
2012-11-22,1.28, -0.03, -6.98, 2.08, 1.47, 6.68, repro,
2012-11-23,-1.30, 0.71, -16.56, 2.08, 1.47, 6.64, repro,
2012-11-24,-0.26, -0.67, -5.22, 2.12, 1.50, 6.83, repro,
2012-11-25,0.85, -0.93, -5.08, 2.13, 1.50, 6.85, repro,
2012-11-26,-0.62, -0.66, -11.16, 2.68, 1.88, 8.69, repro,
2012-11-27,0.03, -1.10, -5.43, 2.13, 1.51, 6.86, repro,
2012-11-28,0.45, -1.53, -3.00, 2.18, 1.52, 6.95, repro,
2012-11-29,1.35, -1.38, -6.15, 2.16, 1.55, 6.92, repro,
2012-11-30,2.66, -0.16, -0.26, 2.12, 1.50, 6.84, repro,
2012-12-01,3.21, -1.55, 3.21, 2.12, 1.48, 6.76, repro,
2012-12-02,2.25, 1.08, -0.55, 2.12, 1.50, 6.85, repro,
2012-12-03,-0.55, -2.06, -1.53, 2.47, 1.72, 8.05, repro,
2012-12-05,2.69, -0.20, -6.84, 2.13, 1.51, 6.85, repro,
2012-12-06,2.20, -0.33, -4.81, 2.17, 1.56, 6.99, repro,
2012-12-07,2.14, -0.60, -7.92, 2.14, 1.51, 6.78, repro,
2012-12-08,3.12, -1.85, -7.45, 2.08, 1.47, 6.65, repro,
2012-12-09,1.00, -0.62, -5.02, 2.12, 1.51, 6.84, repro,
2012-12-10,1.82, -0.21, -12.66, 2.39, 1.72, 7.85, repro,
2012-12-11,1.48, -1.20, 7.37, 2.10, 1.48, 6.70, repro,
2012-12-12,1.35, -0.14, 5.22, 2.14, 1.51, 6.84, repro,
2012-12-13,0.34, -0.12, -2.54, 2.13, 1.50, 6.81, repro,
2012-12-14,1.92, -1.18, 0.24, 2.11, 1.50, 6.73, repro,
2012-12-15,0.90, 0.09, 3.10, 2.11, 1.50, 6.75, repro,
2012-12-16,1.41, 0.03, 1.46, 2.14, 1.51, 6.81, repro,
2012-12-17,3.34, -1.07, 6.46, 2.16, 1.54, 6.97, repro,
2012-12-18,0.85, -0.56, 1.54, 2.13, 1.50, 6.82, repro,
2012-12-19,2.53, -1.06, -2.52, 2.18, 1.53, 6.84, repro,
2012-12-20,5.26, -1.99, 4.17, 2.10, 1.49, 6.76, repro,
2012-12-21,2.20, -0.64, -7.02, 2.16, 1.53, 6.93, repro,
2012-12-22,2.40, -0.13, 5.03, 2.10, 1.47, 6.70, repro,
2012-12-23,4.06, -0.78, -2.77, 2.08, 1.47, 6.66, repro,
2012-12-24,1.59, -1.82, -5.43, 2.12, 1.50, 6.76, repro,
2012-12-25,2.78, 0.23, -7.48, 2.12, 1.50, 6.78, repro,
2012-12-26,6.04, -0.09, -9.02, 2.12, 1.50, 6.78, repro,
2012-12-27,4.16, 0.97, -7.99, 2.15, 1.50, 6.88, repro,
2012-12-28,3.06, -0.75, -17.24, 2.15, 1.52, 6.89, repro,
2012-12-29,2.20, -1.38, -15.89, 2.11, 1.49, 6.77, repro,
2012-12-30,1.05, -1.67, -10.31, 2.10, 1.47, 6.72, repro,
2012-12-31,2.11, -1.28, -9.58, 2.12, 1.50, 6.84, repro,
2013-01-01,2.13, -1.70, -13.57, 2.15, 1.53, 6.95, repro,
2013-01-02,0.94, -1.73, -14.01, 2.15, 1.53, 6.92, repro,
2013-01-03,-0.74, -1.69, -8.80, 2.11, 1.51, 6.82, repro,
2013-01-04,-0.27, -1.22, -17.31, 2.14, 1.51, 6.89, repro,
2013-01-05,-2.48, -2.97, -5.25, 2.12, 1.52, 6.87, repro,
2013-01-06,-1.31, -1.73, -0.63, 2.11, 1.51, 6.87, repro,
2013-01-07,3.13, -0.75, -3.24, 2.15, 1.53, 6.97, repro,
2013-01-08,2.48, -0.21, -1.17, 2.12, 1.50, 6.83, repro,
2013-01-09,2.64, 0.75, -2.69, 2.13, 1.51, 6.89, repro,
2013-01-10,2.16, -1.30, -4.51, 2.21, 1.59, 7.08, repro,
2013-01-11,2.90, -0.66, -7.65, 2.18, 1.58, 7.09, repro,
2013-01-12,2.82, -0.98, -6.12, 2.18, 1.61, 7.21, repro,
2013-01-13,2.50, -1.54, -9.52, 2.11, 1.50, 6.81, repro,
2013-01-14,1.73, -0.47, -10.81, 2.17, 1.55, 7.06, repro,
2013-01-15,2.48, -0.55, -13.33, 2.14, 1.54, 6.93, repro,
2013-01-16,3.25, -1.21, -16.00, 2.15, 1.50, 6.89, repro,
2013-01-17,2.62, -0.49, -17.30, 2.23, 1.56, 7.17, repro,
2013-01-18,2.89, -1.49, -12.41, 2.16, 1.56, 7.06, repro,
2013-01-19,3.43, -0.86, -7.75, 2.10, 1.48, 6.77, repro,
2013-01-20,2.33, -0.18, -11.44, 2.07, 1.47, 6.67, repro,
2013-01-21,3.11, -0.55, -11.08, 2.09, 1.48, 6.72, repro,
2013-01-22,3.33, -1.61, -13.22, 2.12, 1.53, 6.94, repro,
2013-01-23,3.08, -2.97, -6.70, 2.21, 1.55, 6.98, repro,
2013-01-24,4.06, -2.39, -4.52, 2.24, 1.59, 7.11, repro,
2013-01-25,3.03, -0.95, -10.64, 2.15, 1.55, 7.10, repro,
2013-01-26,2.94, -0.04, -3.89, 2.11, 1.51, 6.88, repro,
2013-01-27,4.69, -1.50, -2.73, 2.07, 1.48, 6.72, repro,
2013-01-28,4.21, -1.46, -7.78, 2.08, 1.48, 6.73, repro,
2013-01-29,4.95, -0.77, -7.88, 2.09, 1.49, 6.81, repro,
2013-01-30,4.16, -0.61, -8.92, 2.08, 1.48, 6.75, repro,
2013-01-31,4.48, -0.35, -10.47, 2.24, 1.55, 7.14, repro,
2013-02-01,5.15, -0.85, -20.03, 2.14, 1.50, 6.86, repro,
2013-02-02,2.82, -1.31, -16.03, 2.12, 1.49, 6.81, repro,
2013-02-03,3.70, -1.43, -10.88, 2.10, 1.48, 6.78, repro,
2013-02-04,3.15, -1.46, -2.57, 2.09, 1.49, 6.83, repro,
2013-02-05,2.05, -1.63, -2.22, 2.18, 1.54, 7.02, repro,
2013-02-06,4.14, -0.07, -9.74, 2.25, 1.54, 7.25, repro,
2013-02-07,3.35, -1.45, -8.45, 2.13, 1.49, 6.81, repro,
2013-02-08,3.70, -1.45, -3.93, 2.13, 1.49, 6.80, repro,
2013-02-09,4.08, -1.26, -9.82, 2.09, 1.48, 6.78, repro,
2013-02-10,3.84, -1.12, -15.92, 2.13, 1.51, 6.89, repro,
2013-02-11,2.09, -1.06, -7.47, 2.09, 1.48, 6.79, repro,
2013-02-12,2.99, -0.96, -12.16, 2.15, 1.49, 6.85, repro,
2013-02-13,3.18, -1.58, -5.78, 2.18, 1.54, 7.06, repro,
2013-02-14,3.51, -1.48, -15.96, 2.12, 1.53, 6.96, repro,
2013-02-15,3.24, -0.62, -18.74, 2.21, 1.58, 7.22, repro,
2013-02-16,2.85, -0.80, -12.93, 2.08, 1.48, 6.74, repro,
2013-02-17,3.01, -0.12, -6.27, 2.10, 1.49, 6.85, repro,
2013-02-18,3.93, -1.07, -7.22, 2.13, 1.50, 6.88, repro,
2013-02-19,2.73, -1.74, 0.17, 2.15, 1.50, 6.90, repro,
2013-02-20,2.86, -0.57, -0.16, 2.12, 1.52, 6.91, repro,
2013-02-21,2.27, -0.61, -2.95, 2.19, 1.52, 6.91, repro,
2013-02-22,2.68, -0.95, 4.07, 2.20, 1.55, 6.99, repro,
2013-02-23,4.13, -0.77, -4.55, 2.25, 1.57, 7.05, repro,
2013-02-24,3.89, 0.04, -7.34, 2.08, 1.49, 6.74, repro,
2013-02-25,2.15, -1.48, -9.63, 2.11, 1.48, 6.76, repro,
2013-02-26,3.43, 0.01, -12.06, 2.08, 1.48, 6.69, repro,
2013-02-27,2.16, -1.35, -11.07, 2.08, 1.48, 6.71, repro,
2013-02-28,2.12, -0.13, -11.75, 2.09, 1.48, 6.75, repro,
2013-03-01,2.41, 0.11, -17.37, 2.18, 1.59, 7.19, repro,
2013-03-02,3.03, -0.38, -11.84, 2.13, 1.51, 6.86, repro,
2013-03-03,1.71, -0.33, -7.49, 2.13, 1.52, 6.88, repro,
2013-03-04,3.13, -0.34, -9.73, 2.13, 1.52, 6.87, repro,
2013-03-05,1.36, -0.68, -8.41, 2.12, 1.51, 6.84, repro,
2013-03-06,2.66, -1.82, -11.37, 2.16, 1.54, 7.03, repro,
2013-03-07,2.73, -0.47, -11.35, 2.15, 1.53, 6.94, repro,
2013-03-08,2.81, -1.13, -11.29, 2.12, 1.51, 6.92, repro,
2013-03-09,3.06, -1.91, -5.96, 2.09, 1.52, 6.78, repro,
2013-03-10,2.09, -0.57, -5.39, 2.13, 1.52, 6.86, repro,
2013-03-11,2.33, -0.85, -12.21, 2.12, 1.51, 6.82, repro,
2013-03-12,1.94, 0.23, -11.72, 2.13, 1.51, 6.87, repro,
2013-03-13,1.83, -0.41, -8.28, 2.11, 1.51, 6.83, repro,
2013-03-14,2.61, -0.75, -11.30, 2.13, 1.52, 6.89, repro,
2013-03-15,2.63, -0.91, -8.08, 2.09, 1.50, 6.78, repro,
2013-03-16,1.60, -0.44, -6.60, 2.07, 1.48, 6.65, repro,
2013-03-17,1.81, -0.94, -3.74, 2.13, 1.52, 6.91, repro,
2013-03-18,3.20, 0.42, -0.60, 2.11, 1.50, 6.79, repro,
2013-03-19,1.82, -0.44, -8.71, 2.12, 1.49, 6.78, repro,
2013-03-20,3.21, -1.92, -7.83, 2.09, 1.48, 6.74, repro,
2013-03-21,2.64, -1.60, -7.03, 2.08, 1.49, 6.69, repro,
2013-03-22,3.82, 0.47, -9.44, 2.06, 1.48, 6.62, repro,
2013-03-23,2.46, -0.19, -7.76, 2.08, 1.48, 6.72, repro,
2013-03-24,2.31, -0.64, -12.00, 2.08, 1.47, 6.71, repro,
2013-03-25,2.72, -0.43, -10.26, 2.08, 1.48, 6.75, repro,
2013-03-26,1.61, -1.18, -7.77, 2.07, 1.48, 6.70, repro,
2013-03-27,1.78, -0.61, -10.73, 2.07, 1.48, 6.71, repro,
2013-03-28,2.08, -1.21, -12.97, 2.12, 1.52, 6.86, repro,
2013-03-29,1.03, -1.34, -9.75, 2.13, 1.53, 6.96, repro,
2013-03-30,2.07, -0.88, -9.55, 2.11, 1.52, 6.89, repro,
2013-03-31,2.26, -1.82, -6.61, 2.12, 1.52, 6.89, repro,
2013-04-01,1.47, -1.31, -2.72, 2.10, 1.50, 6.81, repro,
2013-04-02,1.16, -1.09, -9.07, 2.11, 1.52, 6.83, repro,
2013-04-03,0.45, -1.23, -9.89, 2.13, 1.53, 6.96, repro,
2013-04-04,-0.08, -0.88, -8.31, 2.16, 1.56, 7.12, repro,